{"data":{"norad_id":68916,"intl_designator":"2026-097X","name":"STARLINK-37507","alt_names":[],"object_type":"PAYLOAD","status":"ACTIVE","operator":null,"country":"US","launch_date":"2026-04-30","launch_site_code":"AFWTR","launch_vehicle":null,"mission":null,"orbit_class":"UNKNOWN","rcs_meters":null,"size_class":null,"mass_kg":null,"dimensions":null,"purposes":["comms"],"wikipedia_slug":null,"has_3d_model":false,"image_url":null,"decayed_at":null,"tle_current":{"epoch":"2026-05-25T04:00:03.998880Z","epoch_age_seconds":67955,"freshness":"FRESH","line1":"1 68916U 26097X   26145.16671295 -.02226442  00000+0 -54968-1 0  9995","line2":"2 68916  97.2848 341.0469 0002345  77.6486 149.8808 15.44313166  5208","mean_motion":15.44313166,"eccentricity":0.0002345,"inclination_deg":97.2848,"raan_deg":341.0469,"arg_perigee_deg":77.6486,"mean_anomaly_deg":149.8808,"bstar":-0.054968,"rev_number":520,"period_min":93.245335965749,"perigee_km":431.79964113537,"apogee_km":434.99425055597,"semimajor_km":6811.5339458457,"source":"CELESTRAK","updated_at":"2026-05-25T13:38:22.070799Z"}}}